Weather History for Big Rapids, MI

Change the Weather History Date:

Friday, November 2, 2012

  Actual Average Record
Temperature  
Mean Temperature 38 °F -  
Max Temperature 42 °F 51 °F 69 °F (1977)
Min Temperature 33 °F 35 °F 19 °F (2007)
Degree Days  
Heating Degree Days 28    
Moisture  
Dew Point 30 °F    
Average Humidity 74    
Maximum Humidity 94    
Minimum Humidity 60    
Precipitation  
Precipitation 0.00 in - - ()
Sea Level Pressure  
Sea Level Pressure 29.95 in    
Wind  
Wind Speed 9 mph (NNW)    
Max Wind Speed 17 mph    
Max Gust Speed 25 mph    
Visibility 10 miles    
Events      
Averages and records for this station are not official NWS values.
T = Trace of Precipitation, MM = Missing Value Source: NWS Daily Summary

Daily Weather History Graph

Daily Weather History Graph

Search for Another Location

Airport:

Trip Planner

Search our weather history database for the weather conditions in past years. The results will help you decide how hot, cold, wet, or windy it might be!

Date:

Astronomy

Nov. 02, 2012 Rise Set
Actual Time 8:19 AM EDT 6:30 PM EDT
Civil Twilight 7:49 AM EDT 7:00 PM EDT
Nautical Twilight 7:15 AM EDT 7:34 PM EDT
Astronomical Twilight 6:42 AM EDT 8:08 PM EDT
Moon 9:13 PM EDT (11/2) 11:43 AM EDT (11/2)
Length of Visible Light 11h 10m
Length of Day
10h 10m
Waning Gibbous, 87% of the Moon is Illuminated
Nov 2
Waning Gibbous
Nov 6
Last Quarter
Nov 13
New
Nov 20
First Quarter
Nov 28
Full

Hourly Weather History & Observations

Time (EDT) Temp. Windchill Dew Point Humidity Pressure Visibility Wind Dir Wind Speed Gust Speed Precip Events Conditions
12:14 AM 39.6 °F 34.7 °F 28.2 °F 64% 29.80 in 10.0 mi NW 6.9 mph - N/A   Mostly Cloudy
12:35 AM 39.2 °F 35.9 °F 29.1 °F 67% 29.80 in 10.0 mi WNW 4.6 mph - N/A   Overcast
12:55 AM 38.7 °F 34.3 °F 28.9 °F 68% 29.80 in 10.0 mi WNW 5.8 mph - N/A   Overcast
1:14 AM 38.5 °F 34.1 °F 28.8 °F 68% 29.81 in 10.0 mi WNW 5.8 mph - N/A   Overcast
1:35 AM 38.8 °F 33.8 °F 28.2 °F 66% 29.81 in 10.0 mi NW 6.9 mph - N/A   Overcast
1:55 AM 39.2 °F 34.2 °F 27.5 °F 63% 29.81 in 10.0 mi WNW 6.9 mph - N/A   Overcast
2:14 AM 38.8 °F 33.2 °F 27.5 °F 64% 29.81 in 10.0 mi WNW 8.1 mph - N/A   Overcast
2:35 AM 39.4 °F 33.2 °F 27.3 °F 62% 29.81 in 10.0 mi WNW 9.2 mph - N/A   Overcast
2:55 AM 39.4 °F 34.5 °F 27.7 °F 63% 29.82 in 10.0 mi NW 6.9 mph - N/A   Overcast
3:14 AM 39.4 °F 33.2 °F 28.2 °F 64% 29.83 in 10.0 mi NNW 9.2 mph - N/A   Overcast
3:35 AM 39.4 °F 31.1 °F 29.3 °F 67% 29.83 in 10.0 mi NNW 15.0 mph 20.7 mph N/A   Overcast
3:55 AM 39.2 °F 32.0 °F 30.0 °F 70% 29.83 in 10.0 mi NNW 11.5 mph 20.7 mph N/A   Overcast
4:14 AM 38.8 °F 32.1 °F 29.8 °F 70% 29.84 in 10.0 mi NNW 10.4 mph 19.6 mph N/A   Overcast
4:35 AM 38.8 °F 32.6 °F 29.8 °F 70% 29.84 in 10.0 mi NW 9.2 mph 12.7 mph N/A   Overcast
4:55 AM 38.5 °F 30.3 °F 30.2 °F 72% 29.84 in 10.0 mi NNW 13.8 mph - N/A   Overcast
5:14 AM 37.9 °F 30.0 °F 30.6 °F 75% 29.85 in 10.0 mi NNW 12.7 mph 17.3 mph N/A   Overcast
5:35 AM 37.4 °F 29.8 °F 31.3 °F 79% 29.86 in 10.0 mi NNW 11.5 mph 16.1 mph N/A   Overcast
5:54 AM 37.0 °F 30.4 °F 31.1 °F 79% 29.87 in 10.0 mi NNW 9.2 mph - N/A   Overcast
6:14 AM 36.9 °F 29.6 °F 29.8 °F 76% 29.88 in 10.0 mi NNW 10.4 mph - N/A   Overcast
6:35 AM 36.0 °F 28.0 °F 29.8 °F 78% 29.88 in 10.0 mi NNW 11.5 mph 16.1 mph N/A   Overcast
6:54 AM 36.3 °F 30.8 °F 29.3 °F 76% 29.89 in 10.0 mi NNW 6.9 mph - N/A   Overcast
7:14 AM 36.5 °F 31.8 °F 29.7 °F 76% 29.90 in 10.0 mi North 5.8 mph - N/A   Overcast
7:35 AM 35.8 °F 29.4 °F 30.2 °F 80% 29.90 in 10.0 mi NNW 8.1 mph - N/A   Overcast
7:54 AM 35.6 °F 29.9 °F 29.8 °F 80% 29.91 in 10.0 mi NNW 6.9 mph - N/A   Overcast
8:14 AM 35.8 °F 30.9 °F 30.2 °F 80% 29.91 in 10.0 mi NNW 5.8 mph - N/A   Overcast
8:35 AM 36.0 °F 30.3 °F 30.2 °F 80% 29.92 in 10.0 mi NNW 6.9 mph - N/A   Overcast
8:54 AM 36.0 °F 30.3 °F 30.2 °F 80% 29.92 in 10.0 mi NNW 6.9 mph - N/A   Overcast
9:14 AM 36.5 °F 30.3 °F 30.2 °F 78% 29.93 in 10.0 mi NNW 8.1 mph - N/A   Overcast
9:35 AM 36.5 °F 29.7 °F 30.6 °F 79% 29.93 in 10.0 mi NNW 9.2 mph - N/A   Overcast
9:54 AM 36.7 °F 30.5 °F 31.1 °F 80% 29.94 in 10.0 mi NNW 8.1 mph - N/A   Mostly Cloudy
10:15 AM 37.9 °F 30.0 °F 30.6 °F 75% 29.95 in 10.0 mi NNW 12.7 mph 17.3 mph N/A   Overcast
10:34 AM 38.3 °F 29.7 °F 30.6 °F 74% 29.95 in 10.0 mi North 15.0 mph 18.4 mph N/A   Overcast
10:54 AM 39.2 °F 32.5 °F 29.3 °F 68% 29.96 in 10.0 mi NNW 10.4 mph 23.0 mph N/A   Overcast
11:15 AM 39.6 °F 31.7 °F 29.7 °F 68% 29.96 in 10.0 mi NNW 13.8 mph 18.4 mph N/A   Overcast
11:34 AM 40.1 °F 33.2 °F 30.2 °F 68% 29.97 in 10.0 mi NNW 11.5 mph 16.1 mph N/A   Overcast
11:55 AM 40.1 °F 32.7 °F 29.3 °F 65% 29.98 in 10.0 mi NNW 12.7 mph - N/A   Overcast
12:15 PM 39.2 °F 31.2 °F 31.6 °F 74% 29.98 in 7.0 mi North 13.8 mph 21.9 mph N/A   Unknown
12:34 PM 40.6 °F 32.3 °F 31.3 °F 69% 29.98 in 10.0 mi NNW 16.1 mph 20.7 mph N/A   Overcast
12:55 PM 41.4 °F 33.3 °F 30.4 °F 65% 29.98 in 10.0 mi North 16.1 mph 25.3 mph N/A   Overcast
1:14 PM 41.4 °F 34.7 °F 30.9 °F 66% 29.98 in 10.0 mi NNW 11.5 mph 19.6 mph N/A   Overcast
1:34 PM 41.4 °F 33.6 °F 30.0 °F 64% 29.98 in 10.0 mi NNW 15.0 mph - N/A   Overcast
1:55 PM 41.4 °F 34.7 °F 31.6 °F 68% 29.98 in 10.0 mi NNW 11.5 mph - N/A   Overcast
2:15 PM 42.8 °F 34.8 °F 29.8 °F 60% 29.98 in 10.0 mi NNW 17.3 mph - N/A   Overcast
2:34 PM 42.6 °F 34.6 °F 30.0 °F 61% 29.99 in 10.0 mi North 17.3 mph 20.7 mph N/A   Overcast
2:55 PM 41.7 °F 34.8 °F 31.6 °F 67% 30.00 in 7.0 mi NNW 12.7 mph 19.6 mph N/A   Overcast
3:14 PM 42.8 °F 35.1 °F 30.6 °F 62% 30.00 in 10.0 mi NW 16.1 mph 21.9 mph N/A   Overcast
3:34 PM 42.1 °F 35.2 °F 30.4 °F 63% 30.00 in 10.0 mi NNW 12.7 mph - N/A   Overcast
3:55 PM 41.9 °F 35.0 °F 31.3 °F 66% 30.00 in 10.0 mi NW 12.7 mph 18.4 mph N/A   Overcast
4:14 PM 41.9 °F 35.4 °F 30.4 °F 64% 30.00 in 10.0 mi NW 11.5 mph - N/A   Overcast
4:34 PM 41.5 °F 33.8 °F 31.1 °F 66% 30.01 in 10.0 mi NNW 15.0 mph 18.4 mph N/A   Overcast
4:55 PM 39.4 °F 33.2 °F 32.9 °F 78% 30.02 in 10.0 mi NNW 9.2 mph - N/A   Overcast
5:14 PM 40.1 °F 31.3 °F 31.5 °F 71% 30.02 in 10.0 mi NNW 17.3 mph 20.7 mph N/A   Overcast
5:34 PM 39.2 °F 32.0 °F 32.0 °F 75% 30.03 in 7.0 mi North 11.5 mph 16.1 mph N/A   Overcast
5:55 PM 39.2 °F 33.6 °F 32.0 °F 75% 30.03 in 10.0 mi NNW 8.1 mph - N/A   Overcast
6:14 PM 39.2 °F 33.0 °F 31.8 °F 75% 30.04 in 10.0 mi NNW 9.2 mph - N/A   Overcast
6:34 PM 38.3 °F 31.9 °F 31.5 °F 76% 30.05 in 10.0 mi NNW 9.2 mph - N/A   Mostly Cloudy
6:54 PM 37.9 °F 31.5 °F 32.0 °F 79% 30.05 in 10.0 mi NNW 9.2 mph - N/A   Mostly Cloudy
7:14 PM 37.2 °F 33.6 °F 31.8 °F 81% 30.06 in 10.0 mi NNW 4.6 mph - N/A   Mostly Cloudy
7:35 PM 36.9 °F 33.1 °F 32.0 °F 83% 30.07 in 10.0 mi NW 4.6 mph - N/A   Overcast
7:54 PM 36.7 °F 32.0 °F 31.5 °F 81% 30.07 in 10.0 mi NNW 5.8 mph - N/A   Mostly Cloudy
8:14 PM 36.5 °F 31.8 °F 31.1 °F 81% 30.07 in 10.0 mi NNW 5.8 mph - N/A   Mostly Cloudy
8:35 PM 36.5 °F 32.7 °F 31.6 °F 83% 30.07 in 10.0 mi NNW 4.6 mph - N/A   Overcast
8:54 PM 36.5 °F 32.7 °F 32.0 °F 84% 30.07 in 10.0 mi NNW 4.6 mph - N/A   Overcast
9:14 PM 36.1 °F 31.4 °F 32.0 °F 85% 30.08 in 10.0 mi NNW 5.8 mph - N/A   Overcast
9:35 PM 35.8 °F 30.9 °F 32.2 °F 87% 30.08 in 10.0 mi NNW 5.8 mph - N/A   Mostly Cloudy
9:54 PM 34.9 °F 29.9 °F 32.0 °F 89% 30.08 in 10.0 mi NNW 5.8 mph - N/A   Scattered Clouds
10:14 PM 34.5 °F 30.4 °F 32.2 °F 91% 30.08 in 10.0 mi NW 4.6 mph - N/A   Clear
10:35 PM 34.0 °F 31.0 °F 32.0 °F 92% 30.08 in 10.0 mi NNW 3.5 mph - N/A   Clear
10:54 PM 33.3 °F - 31.8 °F 94% 30.08 in 10.0 mi Calm Calm - N/A   Clear
11:35 PM 33.8 °F 28.6 °F 32.0 °F 93% 30.09 in 10.0 mi NNW 5.8 mph - N/A   Mostly Cloudy
11:54 PM 34.7 °F 30.6 °F 32.0 °F 90% 30.09 in 10.0 mi NW 4.6 mph - N/A   Overcast